Temp
98 97 96 95 95 95 94 92 92 93 92 90 90 91 92 91 89 88 88 87 85 85 86 86 86 86 86 86 86 86 86 86 86 85 85 85 85 85 85 85 85 84 84 83 83 83 84 85 84 83 83 83 83 82 81 81 81 82 81 80 81 80 80
96 97 97 97 96 95 94 93 92 93 93 92 91 90 91 90 89 89 88 87 86 86 86 86 86 86 86 86 86 86 86 86 86 85 86 85 85 85 86 85 84 84 84 84 84 84 84 85 85 83 83 83 83 82 82 81 81 81 80 80 79 79 79
96 96 96 96 96 95 92 93 93 94 94 94 93 92 91 89 89 88 88 87 86 86 87 86 86 86 86 86 86 86 86 87 86 86 86 86 86 88 87 86 85 85 86 86 85 85 85 85 84 83 83 82 83 81 81 81 81 81 80 79 79 78 78
94 96 96 96 95 93 94 94 94 95 96 96 94 93 91 88 90 89 89 89 87 86 86 86 87 87 87 86 86 86 86 86 87 87 87 87 86 87 86 86 85 86 85 85 87 86 86 85 84 83 84 82 81 82 81 81 81 80 80 79 78 79 78
94 97 97 95 96 94 94 94 95 94 96 98 95 91 91 91 91 91 90 90 90 87 88 88 89 88 87 87 87 87 87 87 87 87 88 87 87 87 86 87 86 87 86 87 86 84 84 84 84 83 83 82 82 81 81 81 81 80 80 79 77 78 78
95 95 95 96 96 96 96 97 98 99 97 97 95 93 93 94 94 94 93 90 90 90 88 88 88 87 87 88 88 88 87 87 87 87 87 87 86 86 87 87 87 87 87 85 86 85 85 84 84 83 83 84 83 82 82 81 81 81 80 79 78 78 78
95 96 95 96 97 97 97 97 99 100 99 98 98 95 95 95 94 94 94 92 92 89 89 89 89 89 87 88 87 87 87 87 87 87 88 88 87 87 86 86 86 87 87 86 85 85 85 84 83 83 82 83 81 82 80 79 80 80 79 78 77 77 77
95 96 95 96 99 100 100 97 97 99 98 97 98 97 95 95 95 95 94 94 93 92 91 91 89 88 87 88 88 88 88 88 88 88 88 88 87 87 87 87 87 86 86 86 85 85 86 84 84 83 82 83 81 80 80 79 79 80 79 78 77 77 78
97 96 96 98 99 100 100 96 95 94 94 95 95 94 95 94 95 94 94 94 93 92 91 92 91 91 88 88 87 87 88 88 88 88 88 88 88 89 89 89 87 87 86 87 87 85 85 84 84 82 82 81 80 80 80 79 79 79 79 78 77 77 77
94 93 94 98 98 99 96 96 93 91 92 92 92 92 93 93 93 94 94 95 95 93 92 93 93 92 89 88 88 89 88 87 88 89 90 89 89 89 90 91 89 88 87 87 88 86 84 84 84 82 81 81 80 79 79 79 79 79 79 78 77 77 76
94 92 93 96 95 95 95 95 92 89 91 90 90 93 92 92 93 94 93 95 95 94 94 93 93 92 91 90 90 89 87 88 88 88 88 89 90 90 91 92 91 89 88 88 87 86 85 83 83 82 81 81 80 79 79 79 79 78 79 78 78 77 77
92 92 91 93 93 93 93 90 90 90 90 90 92 93 91 91 93 94 94 94 96 95 94 94 95 94 91 91 90 87 87 87 88 89 89 89 90 91 91 92 90 90 89 89 88 87 86 84 83 82 81 80 80 80 79 79 78 78 78 79 78 77 77
93 91 91 94 92 93 91 90 90 90 90 92 94 94 93 93 93 94 92 93 96 96 95 93 93 92 91 91 91 87 86 87 88 89 89 88 89 90 91 92 93 92 90 89 89 88 87 85 83 82 81 80 80 80 79 79 79 78 78 78 77 77 76
91 94 94 93 93 92 91 91 91 90 90 92 93 93 93 94 95 93 92 93 95 97 97 97 93 92 91 90 89 87 87 87 88 89 88 89 88 89 90 91 90 90 89 88 88 89 87 86 84 83 82 81 81 80 80 79 78 77 77 77 77 76 76
93 94 93 93 90 90 91 91 90 90 91 91 93 93 93 93 93 93 92 94 93 98 96 94 92 91 91 89 88 87 87 87 88 88 88 88 88 88 88 89 88 88 88 87 87 88 88 87 86 83 81 81 80 80 80 79 78 78 78 77 76 76 76
98 95 94 93 91 92 91 91 90 90 90 90 91 91 93 92 91 93 93 93 95 94 95 93 91 90 90 88 88 87 87 87 87 87 87 87 87 87 87 88 88 88 87 87 87 86 86 86 85 85 82 80 80 80 79 79 79 75 70 72 76 76 76
97 97 95 93 91 92 91 91 91 90 89 89 90 90 91 91 91 92 97 94 96 93 95 94 90 89 89 88 88 88 87 87 87 87 87 87 87 87 87 87 87 86 86 86 85 86 85 85 85 85 83 82 81 80 79 79 79 68 67 69 72 76 76
96 94 94 93 92 91 90 91 90 89 90 91 91 91 91 90 91 92 93 93 93 97 98 94 91 90 88 89 88 88 87 87 87 86 86 87 86 86 86 86 86 85 85 85 85 84 85 85 84 83 83 81 82 81 79 79 72 65 66 68 69 73 77
98 97 93 91 90 90 92 93 92 90 91 92 92 91 92 92 92 90 91 91 92 93 94 91 91 90 89 89 88 88 87 87 86 86 86 86 86 86 86 85 85 84 84 84 85 85 84 83 83 82 81 81 80 80 80 80 66 64 65 67 67 69 75
100 101 100 96 94 93 92 92 92 92 91 90 91 94 93 92 92 91 92 91 91 91 90 90 89 89 89 88 88 88 87 87 86 86 86 86 86 86 85 85 84 84 85 85 84 83 83 83 82 82 80 80 79 78 79 79 64 64 63 64 65 67 71
95 97 97 97 92 95 91 91 91 91 90 92 94 93 92 92 93 92 92 91 90 90 89 89 88 88 88 88 88 87 87 87 86 86 86 85 85 85 84 84 84 84 83 84 83 82 81 81 81 80 80 79 80 78 77 79 62 62 62 62 63 64 69
100 101 100 99 94 91 90 93 92 93 91 93 94 95 94 93 95 94 91 91 90 90 89 88 88 87 88 87 87 87 87 87 86 85 85 85 85 84 83 83 83 82 82 82 83 83 82 80 80 78 78 77 78 78 76 75 59 61 61 61 62 64 71
104 102 102 99 101 97 92 94 93 95 91 92 94 94 94 95 95 93 91 90 90 89 88 88 87 87 87 87 87 87 88 87 87 85 85 85 84 83 83 82 82 82 82 81 81 82 80 79 78 77 77 77 77 76 74 72 61 60 59 60 60 63 71
105 103 103 103 99 100 94 94 95 94 93 93 92 92 92 93 92 90 89 88 88 88 87 87 87 87 87 87 87 87 88 87 87 85 84 84 83 83 83 83 83 82 82 81 81 80 79 79 77 77 77 77 77 78 74 70 61 56 57 58 58 65 71
104 105 104 103 102 102 98 94 94 94 92 92 90 91 91 91 91 90 88 87 88 88 88 87 87 87 87 87 88 88 88 88 86 85 84 83 83 83 82 82 82 82 81 82 82 80 78 77 76 76 76 78 78 72 73 73 64 55 57 57 57 64 71
99 101 102 102 104 103 94 92 91 91 91 91 90 91 91 91 91 89 87 87 89 88 87 87 87 88 88 89 88 88 87 87 85 85 85 83 83 82 82 82 82 81 80 80 81 79 77 76 76 75 75 77 77 76 76 75 71 61 56 56 56 60 71
98 100 101 104 101 88 92 92 91 91 91 90 90 92 91 91 90 87 87 87 87 86 88 88 88 88 88 88 88 88 87 87 86 85 86 85 83 83 82 82 81 80 78 79 79 77 75 76 76 76 75 77 77 77 76 77 76 67 55 55 56 58 64
98 97 103 100 89 90 92 94 90 91 91 90 92 92 92 90 87 86 86 86 86 87 89 88 88 87 87 86 87 87 87 86 85 86 86 84 81 80 80 80 80 79 79 78 76 75 74 74 74 75 75 76 77 76 76 74 72 74 59 57 55 56 58
93 91 90 90 91 92 93 90 88 90 91 94 95 93 91 90 86 85 85 85 86 88 88 88 87 86 86 85 85 84 85 84 84 84 84 82 81 79 78 78 77 77 76 75 75 74 73 73 73 74 73 73 73 75 75 74 74 68 66 57 55 54 55
90 90 92 95 94 93 94 88 89 91 93 94 92 91 90 88 85 84 85 85 87 87 86 86 86 85 83 83 83 83 83 84 84 84 82 80 79 78 76 75 75 75 74 74 74 73 73 72 73 73 73 73 73 72 72 73 71 67 66 63 55 53 53
89 91 92 92 93 91 91 91 89 90 90 90 89 89 88 87 85 84 83 84 85 84 84 84 83 82 82 82 82 81 82 82 81 81 80 79 78 77 76 75 75 73 73 73 74 73 73 73 73 73 73 73 71 71 71 71 72 70 63 61 56 54 52
89 90 93 91 90 90 90 91 90 90 88 88 88 86 86 86 85 81 81 84 83 84 83 83 81 81 80 81 81 81 81 81 80 79 79 79 78 77 77 75 74 73 73 73 74 74 74 73 74 74 74 72 71 70 71 71 70 69 66 62 59 57 53
82 90 88 87 88 86 88 88 89 88 87 85 85 84 85 85 85 83 83 82 84 83 82 81 80 79 79 79 79 80 80 79 78 77 77 76 77 77 76 76 75 74 73 74 74 74 74 74 74 73 73 72 71 71 71 70 70 69 69 67 64 63 59
64 67 81 88 87 87 87 87 85 82 80 79 80 82 83 84 84 84 84 85 85 83 81 79 79 79 79 79 79 78 78 77 76 76 77 78 78 77 77 76 76 75 74 74 75 74 73 74 73 73 73 71 71 71 71 70 71 71 70 69 68 67 66
67 66 65 69 74 78 82 82 80 79 81 81 81 81 82 83 86 87 85 84 83 81 80 78 78 79 80 79 79 77 76 76 76 77 76 72 65 60 59 64 71 74 67 62 61 67 74 76 74 73 74 74 72 70 70 72 72 73 65 70 63 68 70
68 67 68 68 69 72 74 74 77 80 80 81 83 84 84 84 85 85 86 84 83 81 79 78 78 79 79 79 80 80 79 78 79 78 76 75 70 65 59 51 44 54 69 66 56 50 47 58 72 73 77 75 73 71 73 75 74 58 54 53 53 55 58
68 67 67 68 68 68 72 78 80 81 81 82 82 83 84 83 84 83 84 83 82 81 79 79 78 79 81 81 81 79 80 80 79 77 77 75 72 70 66 63 57 44 43 50 50 47 44 43 45 50 61 71 71 57 46 50 48 48 50 50 49 49 48
70 69 68 69 69 70 75 78 80 81 81 82 83 83 83 83 84 82 83 82 82 82 81 81 80 80 81 82 80 77 77 80 78 77 77 74 73 71 69 67 62 58 46 42 44 45 42 42 42 45 54 58 60 61 58 49 45 45 45 45 43 43 42
MSLP
999.84 1000.32 1000.48 1000.60 1000.92 1001.16 1001.44 1001.68 1001.96 1002.44 1002.68 1003.20 1003.72 1004.08 1004.40 1004.60 1004.92 1005.28 1005.76 1006.20 1006.76 1007.24 1007.28 1007.40 1007.72 1007.96 1008.32 1008.64 1008.88 1009.12 1009.32 1009.68 1009.92 1010.32 1010.56 1010.76 1010.92 1011.20 1011.52 1011.64 1012.00 1012.28 1012.40 1012.80 1012.96 1013.12 1013.12 1013.00 1013.24 1013.64 1013.88 1014.08 1014.40 1014.68 1014.92 1015.04 1015.24 1015.28 1015.36 1015.52 1015.76 1016.04 1016.32
999.64 999.76 999.92 1000.00 1000.20 1000.32 1000.40 1000.76 1001.24 1001.64 1002.08 1002.56 1003.16 1003.72 1003.96 1004.24 1004.48 1004.84 1005.16 1005.56 1006.08 1006.52 1006.76 1006.92 1007.28 1007.52 1007.76 1008.12 1008.40 1008.72 1009.08 1009.28 1009.52 1009.80 1010.08 1010.40 1010.52 1010.68 1010.84 1011.20 1011.56 1011.88 1012.00 1012.16 1012.40 1012.56 1012.72 1012.80 1012.92 1013.40 1013.76 1013.96 1014.28 1014.40 1014.68 1014.88 1015.08 1015.28 1015.56 1015.72 1015.96 1016.12 1016.24
999.20 999.44 999.60 999.72 999.84 999.96 1000.20 1000.48 1000.72 1000.84 1001.24 1001.88 1002.56 1003.16 1003.48 1003.68 1003.80 1004.12 1004.56 1005.12 1005.72 1006.08 1006.32 1006.56 1006.76 1007.00 1007.24 1007.60 1008.08 1008.40 1008.60 1008.88 1009.20 1009.48 1009.84 1010.12 1010.32 1010.40 1010.48 1010.76 1011.08 1011.40 1011.52 1011.64 1011.92 1012.24 1012.28 1012.56 1012.68 1013.00 1013.40 1013.72 1013.92 1014.16 1014.36 1014.68 1014.96 1015.20 1015.44 1015.72 1016.00 1016.20 1016.32
998.64 998.88 998.92 998.84 998.96 999.28 999.60 999.92 1000.28 1000.40 1000.52 1000.92 1001.60 1002.20 1002.80 1003.24 1003.28 1003.56 1003.92 1004.40 1005.12 1005.64 1006.12 1006.16 1006.32 1006.56 1006.80 1007.24 1007.68 1008.00 1008.28 1008.48 1008.68 1008.96 1009.24 1009.48 1009.88 1010.00 1010.28 1010.52 1010.72 1010.92 1011.28 1011.44 1011.52 1011.72 1011.92 1012.24 1012.60 1012.84 1013.04 1013.40 1013.64 1013.88 1014.16 1014.56 1014.80 1015.04 1015.24 1015.56 1015.92 1016.08 1016.24
998.24 998.08 998.24 998.56 998.92 999.28 999.68 1000.00 1000.00 1000.04 1000.24 1000.36 1000.88 1001.44 1001.92 1002.40 1002.80 1003.20 1003.56 1003.84 1004.28 1004.96 1005.16 1005.44 1005.64 1005.96 1006.24 1006.56 1007.00 1007.36 1007.68 1008.00 1008.28 1008.48 1008.72 1008.96 1009.24 1009.56 1009.96 1010.20 1010.40 1010.56 1010.72 1010.92 1011.12 1011.48 1011.76 1012.12 1012.44 1012.72 1012.96 1013.20 1013.56 1013.88 1014.24 1014.44 1014.72 1014.92 1015.16 1015.36 1015.76 1015.88 1016.12
997.76 997.76 997.68 997.68 997.84 998.36 998.72 999.00 999.24 999.48 1000.04 1000.44 1000.68 1001.24 1001.60 1002.04 1002.32 1002.76 1003.00 1003.48 1003.92 1004.24 1004.64 1005.08 1005.40 1005.60 1006.04 1006.16 1006.48 1006.88 1007.16 1007.48 1007.72 1008.00 1008.32 1008.60 1008.92 1009.28 1009.56 1009.68 1009.88 1010.12 1010.36 1010.60 1010.80 1011.12 1011.36 1011.72 1012.04 1012.32 1012.72 1013.00 1013.32 1013.72 1013.96 1014.28 1014.44 1014.64 1014.96 1015.20 1015.44 1015.68 1015.96
997.08 996.72 996.92 996.80 997.00 997.44 997.92 998.32 998.60 998.92 999.40 999.84 1000.20 1000.80 1001.32 1001.64 1002.00 1002.20 1002.48 1003.04 1003.40 1004.04 1004.40 1004.68 1004.84 1005.08 1005.44 1005.64 1006.08 1006.48 1006.88 1007.16 1007.40 1007.72 1007.88 1008.24 1008.44 1008.80 1009.00 1009.20 1009.36 1009.56 1009.72 1010.08 1010.52 1010.68 1011.08 1011.44 1011.72 1012.04 1012.40 1012.76 1013.08 1013.32 1013.64 1013.92 1014.20 1014.32 1014.64 1015.00 1015.32 1015.48 1015.68
995.36 996.08 996.16 996.20 996.48 996.80 997.20 997.64 998.08 998.56 999.04 999.60 1000.12 1000.48 1000.92 1001.00 1001.44 1001.80 1002.12 1002.36 1002.80 1003.28 1003.76 1004.04 1004.32 1004.56 1004.88 1005.16 1005.52 1005.96 1006.32 1006.64 1006.84 1007.20 1007.48 1007.88 1008.08 1008.36 1008.52 1008.76 1008.96 1009.08 1009.40 1009.88 1010.08 1010.28 1010.72 1011.08 1011.28 1011.64 1012.04 1012.44 1012.76 1013.00 1013.28 1013.56 1013.84 1014.00 1014.28 1014.72 1015.08 1015.32 1015.36
994.84 995.00 995.56 996.04 996.32 996.64 996.92 997.32 997.56 998.00 998.72 999.40 999.68 999.96 1000.40 1000.68 1000.84 1001.12 1001.44 1001.84 1002.16 1002.60 1003.04 1003.12 1003.48 1003.84 1004.28 1004.76 1005.20 1005.52 1005.76 1006.12 1006.52 1006.76 1007.12 1007.48 1007.68 1007.88 1008.00 1008.24 1008.52 1008.68 1009.20 1009.48 1009.72 1009.84 1010.16 1010.56 1010.80 1011.12 1011.48 1011.88 1012.20 1012.52 1012.84 1013.12 1013.44 1013.60 1013.88 1014.28 1014.60 1014.96 1015.12
995.20 995.52 995.72 995.76 996.00 996.32 996.44 996.84 997.24 997.76 998.52 999.04 999.44 999.76 1000.08 1000.32 1000.52 1000.72 1000.96 1001.16 1001.52 1002.04 1002.32 1002.60 1002.88 1003.28 1003.88 1004.36 1004.76 1005.04 1005.44 1005.80 1006.04 1006.36 1006.64 1007.04 1007.08 1007.36 1007.48 1007.68 1008.08 1008.32 1008.72 1008.96 1009.16 1009.56 1009.72 1009.96 1010.32 1010.68 1011.08 1011.44 1011.80 1012.08 1012.36 1012.68 1013.00 1013.24 1013.48 1013.80 1014.12 1014.48 1014.76
995.00 995.32 995.56 995.72 995.96 996.12 996.32 996.80 997.48 997.80 997.84 998.32 998.76 999.20 999.68 1000.04 1000.24 1000.36 1000.56 1000.60 1000.92 1001.24 1001.44 1001.88 1002.16 1002.76 1003.32 1003.80 1004.40 1004.68 1005.08 1005.40 1005.60 1006.00 1006.24 1006.40 1006.52 1006.76 1006.96 1007.28 1007.56 1007.84 1008.20 1008.48 1008.76 1009.00 1009.36 1009.72 1009.92 1010.36 1010.72 1011.04 1011.32 1011.64 1011.84 1012.08 1012.40 1012.84 1013.08 1013.32 1013.60 1013.96 1014.28
994.76 995.28 995.48 995.44 995.84 996.12 996.52 996.64 996.84 997.16 997.48 997.80 998.16 998.56 999.04 999.40 999.68 999.88 1000.08 1000.16 1000.12 1000.68 1001.00 1001.32 1001.52 1002.08 1002.76 1003.24 1003.92 1004.32 1004.68 1004.96 1005.20 1005.44 1005.64 1005.84 1006.00 1006.20 1006.44 1006.68 1007.00 1007.36 1007.64 1007.88 1008.36 1008.64 1008.88 1009.28 1009.56 1009.84 1010.28 1010.52 1010.80 1011.04 1011.28 1011.48 1011.80 1012.20 1012.52 1012.88 1013.20 1013.56 1013.88
994.88 994.92 994.96 995.00 995.36 995.64 996.00 996.52 996.68 996.76 996.96 997.24 997.52 997.92 998.40 998.88 999.24 999.48 999.76 999.96 999.76 999.88 1000.32 1000.68 1001.04 1001.52 1002.24 1002.76 1003.20 1003.80 1004.20 1004.44 1004.64 1004.80 1005.00 1005.28 1005.44 1005.60 1005.88 1006.20 1006.36 1006.64 1007.08 1007.28 1007.72 1008.24 1008.60 1008.80 1009.20 1009.40 1009.80 1010.16 1010.40 1010.68 1010.92 1011.12 1011.40 1011.76 1012.12 1012.44 1012.80 1013.24 1013.60
994.84 995.08 995.00 995.04 995.44 995.76 996.12 996.24 996.40 996.68 996.84 997.08 997.36 997.52 998.00 998.28 998.60 998.96 999.28 999.60 999.44 999.40 999.80 1000.12 1000.64 1001.16 1001.76 1002.36 1002.84 1003.32 1003.64 1003.84 1003.96 1004.20 1004.44 1004.60 1004.88 1005.20 1005.40 1005.68 1005.92 1006.12 1006.44 1006.96 1007.48 1007.76 1008.08 1008.48 1008.80 1009.04 1009.32 1009.68 1010.00 1010.24 1010.52 1010.92 1011.28 1011.60 1011.84 1012.12 1012.52 1013.00 1013.36
995.40 995.36 995.12 995.40 995.60 995.68 995.88 996.24 996.40 996.52 996.72 996.92 997.08 997.52 997.76 998.08 998.32 998.48 998.76 998.92 999.04 999.04 999.28 999.52 1000.20 1000.76 1001.32 1001.92 1002.48 1002.80 1003.00 1003.28 1003.56 1003.72 1004.00 1004.20 1004.60 1004.92 1005.16 1005.36 1005.60 1005.84 1006.20 1006.64 1007.08 1007.32 1007.64 1008.00 1008.36 1008.84 1009.20 1009.48 1009.80 1010.08 1010.32 1010.76 1011.12 1011.32 1011.68 1012.24 1012.56 1012.76 1013.12
994.80 995.24 995.48 995.76 995.84 995.76 995.72 995.84 996.12 996.36 996.60 996.92 997.08 997.28 997.52 997.84 998.00 998.16 998.44 998.64 998.68 998.80 998.80 999.16 999.96 1000.48 1000.96 1001.56 1001.96 1002.24 1002.56 1002.92 1003.20 1003.48 1003.68 1004.04 1004.40 1004.64 1004.84 1005.12 1005.36 1005.64 1006.04 1006.44 1006.72 1007.04 1007.32 1007.64 1008.00 1008.52 1009.04 1009.56 1009.80 1010.00 1010.32 1010.72 1010.88 1011.08 1011.48 1012.12 1012.24 1012.32 1012.56
994.16 994.24 994.88 995.40 995.56 995.60 995.60 995.56 995.72 996.00 996.40 996.68 996.88 997.00 997.16 997.36 997.52 997.72 997.88 998.12 998.24 998.48 998.36 998.72 999.60 1000.12 1000.56 1001.16 1001.40 1001.76 1002.16 1002.64 1003.00 1003.20 1003.56 1003.72 1004.00 1004.32 1004.64 1004.92 1005.16 1005.56 1005.92 1006.20 1006.52 1006.84 1007.08 1007.32 1007.72 1008.12 1008.64 1009.20 1009.68 1010.00 1010.20 1010.48 1010.56 1010.84 1011.12 1011.44 1011.72 1011.96 1012.20
993.80 993.96 994.48 994.92 995.00 994.96 995.32 995.48 995.68 995.92 996.16 996.28 996.36 996.60 996.92 997.28 997.44 997.52 997.64 997.64 997.88 997.88 997.92 998.48 999.08 999.72 1000.24 1000.60 1001.00 1001.44 1001.88 1002.28 1002.60 1003.00 1003.28 1003.48 1003.84 1004.12 1004.40 1004.76 1005.12 1005.56 1005.84 1006.08 1006.44 1006.60 1006.76 1007.20 1007.44 1007.68 1008.08 1008.64 1009.16 1009.64 1009.92 1010.08 1010.16 1010.56 1010.92 1011.24 1011.40 1011.64 1011.96
992.80 993.04 993.80 993.84 994.36 994.56 994.56 994.68 994.96 995.16 995.32 995.56 995.88 996.16 996.20 996.48 997.12 997.44 997.20 997.32 997.32 997.44 997.84 998.36 998.80 999.36 999.88 1000.24 1000.64 1001.12 1001.52 1001.92 1002.40 1002.80 1003.12 1003.36 1003.60 1003.92 1004.32 1004.76 1005.16 1005.52 1005.84 1006.16 1006.16 1006.40 1006.80 1007.04 1007.32 1007.60 1007.80 1008.24 1008.80 1009.28 1009.56 1009.84 1010.12 1010.56 1010.80 1011.12 1011.44 1011.64 1011.80
992.12 991.96 992.24 993.00 993.32 993.76 993.80 993.96 994.16 994.40 994.52 994.72 994.88 994.92 995.16 995.68 996.40 996.76 996.76 996.88 997.12 997.56 997.80 998.24 998.68 999.08 999.60 1000.00 1000.40 1000.80 1001.20 1001.64 1002.12 1002.60 1002.88 1003.12 1003.44 1003.80 1004.24 1004.64 1005.04 1005.28 1005.52 1005.80 1006.08 1006.48 1006.76 1006.96 1007.24 1007.52 1007.84 1008.12 1008.52 1008.96 1009.28 1009.72 1010.08 1010.28 1010.64 1011.04 1011.36 1011.52 1011.68
992.12 991.84 991.80 991.88 993.04 992.92 993.44 993.60 993.76 994.00 994.36 994.48 994.48 994.72 995.16 995.68 995.88 996.36 996.80 996.88 997.20 997.36 997.76 998.12 998.60 999.04 999.40 999.84 1000.16 1000.56 1001.00 1001.48 1001.92 1002.40 1002.72 1003.00 1003.36 1003.76 1004.16 1004.52 1004.88 1005.24 1005.48 1005.80 1006.16 1006.52 1006.80 1006.96 1007.28 1007.56 1007.80 1008.04 1008.32 1008.76 1009.20 1009.44 1009.80 1010.20 1010.56 1011.00 1011.16 1011.36 1011.64
991.44 991.36 991.56 991.28 991.96 992.72 992.88 992.92 993.12 993.36 993.64 993.40 993.92 994.40 994.68 995.16 995.32 996.08 996.60 996.52 996.96 997.28 997.60 998.04 998.56 998.96 999.24 999.72 1000.00 1000.36 1000.72 1001.24 1001.76 1002.20 1002.52 1002.92 1003.32 1003.80 1004.24 1004.60 1004.88 1005.28 1005.44 1005.72 1005.96 1006.12 1006.40 1006.84 1007.12 1007.60 1007.96 1008.16 1008.40 1008.84 1009.28 1009.48 1009.92 1010.24 1010.40 1010.72 1011.00 1011.16 1011.52
990.36 990.56 990.48 990.48 990.56 991.16 991.52 991.36 991.84 992.04 992.60 993.04 993.36 993.80 994.28 994.48 994.96 995.72 996.28 996.72 996.88 997.12 997.56 998.00 998.60 998.92 999.16 999.56 999.84 1000.24 1000.56 1001.00 1001.52 1002.04 1002.48 1002.84 1003.36 1003.88 1004.28 1004.68 1004.92 1005.16 1005.32 1005.96 1006.20 1006.48 1006.76 1007.00 1007.32 1007.56 1007.96 1008.32 1008.56 1008.84 1009.24 1009.60 1009.72 1009.76 1010.12 1010.48 1010.84 1011.24 1011.56
989.72 989.84 989.92 989.96 989.80 989.88 990.52 990.60 990.72 991.04 991.76 992.44 992.80 992.96 993.40 993.96 994.64 995.44 996.16 996.52 996.68 997.08 997.56 998.00 998.52 998.72 999.08 999.52 999.80 1000.08 1000.44 1000.80 1001.32 1002.04 1002.48 1002.92 1003.48 1003.88 1004.20 1004.44 1004.76 1005.16 1005.36 1006.00 1006.32 1006.60 1006.88 1007.00 1007.40 1007.68 1007.88 1008.24 1008.56 1008.64 1009.12 1009.44 1009.80 1009.92 1009.96 1010.20 1010.68 1010.84 1011.20
989.64 989.56 989.52 989.56 989.64 989.60 989.88 989.96 990.12 990.68 991.16 991.80 992.60 992.64 992.80 993.40 994.24 995.32 996.12 996.28 996.52 996.84 997.36 997.88 998.36 998.64 999.00 999.32 999.56 999.88 1000.24 1000.68 1001.20 1001.84 1002.36 1002.92 1003.32 1003.60 1004.08 1004.40 1004.72 1004.92 1005.32 1005.80 1006.16 1006.52 1006.84 1007.08 1007.48 1007.76 1007.96 1008.24 1008.48 1008.56 1008.92 1009.24 1009.68 1009.84 1009.80 1010.16 1010.48 1010.72 1010.88
989.44 989.00 988.88 988.76 988.52 988.36 989.00 989.32 990.00 990.72 991.36 991.96 992.16 992.00 992.44 993.08 994.04 995.12 995.84 996.08 996.12 996.76 997.24 997.56 997.84 998.04 998.44 998.92 999.28 999.64 1000.08 1000.44 1001.08 1001.56 1002.12 1002.72 1003.04 1003.36 1003.76 1004.08 1004.48 1004.92 1005.48 1005.80 1006.16 1006.72 1007.04 1007.32 1007.56 1008.00 1008.20 1008.28 1008.52 1008.64 1008.64 1009.00 1009.44 1009.80 1009.96 1010.12 1010.28 1010.44 1010.72
988.76 988.28 988.28 988.16 988.32 988.72 989.28 989.48 989.80 990.60 991.08 991.40 991.60 991.92 992.36 992.96 994.12 995.32 995.76 995.96 996.20 996.64 996.68 996.76 997.16 997.76 998.20 998.64 999.12 999.64 1000.08 1000.44 1000.96 1001.56 1001.96 1002.40 1002.92 1003.24 1003.68 1004.00 1004.52 1004.92 1005.52 1005.96 1006.28 1006.80 1007.16 1007.48 1007.76 1008.00 1008.16 1008.12 1008.32 1008.48 1008.60 1008.60 1008.96 1009.40 1009.72 1009.92 1010.24 1010.48 1010.64
988.56 988.68 987.88 987.44 988.32 988.76 989.56 989.84 990.56 990.92 991.24 991.36 991.52 991.76 992.20 992.92 994.28 995.20 995.76 996.04 996.20 996.00 995.84 996.32 996.96 997.48 998.04 998.64 999.16 999.68 1000.12 1000.60 1001.00 1001.40 1001.96 1002.40 1002.88 1003.44 1003.92 1004.08 1004.44 1004.96 1005.44 1005.88 1006.44 1006.96 1007.32 1007.56 1007.80 1008.04 1008.20 1008.12 1008.04 1008.24 1008.36 1008.36 1008.56 1008.96 1009.48 1009.68 1009.96 1010.24 1010.40
989.24 989.96 990.64 989.96 989.56 989.24 989.36 990.20 990.88 991.20 991.40 991.36 991.48 991.80 992.24 993.00 994.36 995.20 995.68 996.12 995.80 995.36 995.72 996.28 996.84 997.48 998.12 998.72 999.24 999.68 1000.12 1000.56 1001.08 1001.56 1001.88 1002.44 1002.88 1003.44 1004.08 1004.36 1004.84 1005.20 1005.52 1006.24 1006.72 1007.12 1007.52 1007.80 1008.00 1008.16 1008.36 1008.32 1008.20 1008.16 1008.24 1008.32 1008.36 1008.52 1009.00 1009.48 1009.68 1009.96 1010.24
990.44 989.52 989.92 990.04 990.20 989.76 989.52 990.40 990.76 991.24 991.24 991.28 991.64 991.96 992.40 993.32 994.60 995.28 995.80 996.00 995.28 995.32 995.76 996.36 997.04 997.64 998.36 998.96 999.40 999.76 1000.24 1000.64 1001.04 1001.36 1001.72 1002.24 1002.72 1003.32 1004.16 1004.76 1005.20 1005.56 1005.96 1006.40 1006.88 1007.28 1007.64 1007.84 1008.00 1008.20 1008.24 1008.28 1008.24 1008.48 1008.44 1008.32 1008.36 1008.44 1008.48 1008.92 1009.48 1009.88 1010.12
991.04 989.92 989.68 990.16 990.52 990.32 990.44 990.88 991.24 991.36 991.60 991.68 991.92 992.16 992.72 993.44 994.44 995.28 995.92 995.76 995.32 995.68 996.08 996.68 997.28 998.00 998.64 999.16 999.64 1000.08 1000.44 1000.76 1001.12 1001.48 1001.88 1002.20 1002.64 1003.44 1004.04 1004.76 1005.28 1005.96 1006.36 1006.64 1007.00 1007.24 1007.56 1007.72 1007.80 1007.96 1007.84 1007.88 1008.28 1008.48 1008.48 1008.40 1008.40 1008.64 1008.84 1008.96 1009.36 1009.68 1010.04
991.20 990.36 989.84 990.08 990.40 990.56 990.88 991.12 991.44 991.80 992.24 992.32 992.40 992.88 993.32 993.88 994.40 995.48 995.80 995.60 995.76 995.92 996.28 996.92 997.68 998.44 999.00 999.40 999.84 1000.24 1000.52 1001.04 1001.44 1001.68 1001.92 1002.20 1002.52 1003.00 1003.48 1004.32 1005.16 1005.92 1006.40 1006.72 1007.00 1007.08 1007.28 1007.44 1007.40 1007.52 1007.52 1007.84 1008.20 1008.44 1008.48 1008.48 1008.60 1008.76 1009.04 1009.32 1009.48 1009.60 1009.84
993.28 991.08 990.76 991.00 990.84 990.84 991.16 991.60 992.00 992.36 992.76 993.28 993.28 993.64 994.12 994.56 994.80 995.20 995.52 995.96 996.08 996.36 996.76 997.32 997.96 998.68 999.24 999.76 1000.16 1000.44 1000.72 1001.32 1001.92 1002.28 1002.60 1002.92 1003.08 1003.20 1003.52 1004.00 1004.72 1005.52 1006.20 1006.56 1006.76 1006.92 1007.00 1007.08 1007.12 1007.28 1007.48 1007.80 1008.16 1008.32 1008.40 1008.56 1008.68 1008.76 1008.84 1009.00 1009.28 1009.56 1010.00
995.56 995.56 993.16 991.28 991.04 990.92 991.36 991.84 992.56 993.24 993.72 994.24 994.36 994.36 994.56 994.96 995.44 995.64 995.84 996.04 996.24 996.60 997.00 997.68 998.28 998.96 999.60 1000.04 1000.40 1000.84 1001.28 1001.92 1002.28 1002.52 1002.88 1003.16 1003.40 1003.80 1004.04 1004.24 1004.56 1005.28 1005.84 1006.16 1006.32 1006.60 1006.80 1006.76 1006.80 1007.08 1007.40 1007.88 1008.00 1008.12 1008.32 1008.48 1008.56 1008.60 1008.72 1008.84 1009.00 1009.28 1009.60
995.84 995.96 996.92 996.00 994.24 992.76 992.36 992.88 993.64 994.24 994.36 994.68 994.64 994.68 995.00 995.40 995.52 995.64 995.84 996.00 996.32 996.72 997.36 998.12 998.64 999.16 999.76 1000.24 1000.64 1001.28 1001.72 1002.16 1002.36 1002.64 1003.04 1003.80 1004.56 1005.12 1005.44 1005.32 1004.96 1005.24 1006.08 1006.56 1006.64 1006.36 1006.28 1006.28 1006.56 1006.76 1006.96 1007.32 1007.68 1008.04 1008.40 1008.24 1008.24 1008.04 1007.92 1008.16 1008.40 1008.68 1009.16
996.64 996.24 996.48 997.12 996.76 995.76 995.00 994.92 994.52 994.40 994.64 994.76 994.76 995.04 995.36 995.56 995.60 995.56 995.68 996.00 996.48 996.92 997.76 998.44 999.00 999.52 1000.04 1000.40 1000.88 1001.40 1001.84 1002.12 1002.32 1002.64 1003.16 1003.84 1004.64 1005.32 1006.16 1006.80 1006.40 1005.84 1005.84 1006.48 1006.88 1006.88 1006.32 1005.92 1006.36 1006.52 1006.52 1007.12 1007.36 1007.56 1007.84 1007.84 1007.52 1007.40 1007.84 1008.28 1008.52 1008.60 1008.76
997.40 997.32 997.44 997.64 997.92 997.52 996.12 995.00 994.56 994.52 994.88 995.20 995.32 995.52 995.60 995.68 995.68 995.80 996.00 996.28 996.80 997.32 997.96 998.52 999.16 999.68 1000.12 1000.52 1000.92 1001.24 1001.48 1001.68 1002.12 1002.80 1003.20 1003.72 1004.44 1005.00 1005.60 1006.16 1006.64 1007.08 1007.08 1006.88 1006.88 1006.60 1006.52 1006.52 1006.56 1006.64 1006.60 1006.88 1007.56 1008.20 1008.32 1007.84 1007.68 1007.72 1008.00 1008.36 1008.68 1008.88 1008.92
997.84 997.80 998.08 998.28 998.04 997.52 996.04 995.44 995.16 995.20 995.40 995.32 995.36 995.60 995.68 995.88 996.04 996.24 996.48 996.76 997.12 997.44 997.96 998.44 999.00 999.64 1000.04 1000.20 1000.72 1001.08 1001.28 1001.52 1002.16 1002.72 1003.24 1003.84 1004.32 1004.84 1005.20 1005.72 1006.32 1007.00 1007.44 1007.52 1007.16 1007.12 1007.08 1007.00 1007.04 1006.96 1006.84 1007.00 1007.36 1007.80 1008.36 1008.72 1008.48 1008.16 1008.36 1008.64 1009.04 1009.24 1009.32
Wind_Speed
17 17 15 14 15 17 16 17 18 17 17 17 17 19 19 16 16 14 14 16 18 17 17 16 16 15 16 14 14 13 11 11 10 10 9 8 8 8 8 7 8 7 7 7 7 8 7 5 7 10 7 6 5 6 6 5 5 5 3 4 2 4 4
19 18 18 17 16 18 18 17 19 18 16 16 17 18 18 17 16 16 16 17 19 19 19 17 17 16 16 15 13 13 13 13 11 9 9 8 8 7 8 8 8 8 7 8 8 7 8 6 8 9 8 7 7 7 7 7 6 5 4 4 3 3 5
19 17 17 16 16 16 16 15 16 17 17 17 18 18 19 18 17 18 17 17 18 18 17 18 17 16 16 15 14 14 14 13 12 12 12 10 11 11 8 8 8 8 8 7 8 8 8 8 7 8 10 9 9 9 8 8 6 6 5 5 4 4 4
18 18 17 16 14 15 15 16 18 19 19 20 20 21 20 18 17 16 16 18 19 18 19 18 18 17 16 16 15 14 15 14 13 13 13 11 11 10 9 8 8 8 9 9 8 9 8 9 9 7 9 9 9 9 9 8 8 7 6 6 6 5 5
17 19 18 14 13 12 12 14 15 16 20 22 20 19 19 19 18 17 16 17 19 20 21 20 18 16 14 15 13 13 14 15 14 12 12 11 11 11 10 11 10 10 9 10 9 9 8 9 10 8 9 8 9 8 8 8 8 8 6 7 7 6 6
19 20 16 16 16 15 16 18 19 20 20 21 21 20 20 22 21 23 20 18 18 19 18 18 17 16 15 16 14 13 13 14 13 12 12 11 11 11 12 11 11 12 12 11 10 9 10 10 11 10 11 9 10 9 9 9 8 9 8 7 7 6 6
20 16 16 16 15 16 17 16 17 18 19 20 19 17 19 21 23 22 21 21 21 20 21 21 20 17 15 14 15 15 15 15 14 15 13 13 12 12 12 11 11 12 11 10 11 11 11 11 11 11 10 11 10 10 10 10 9 9 8 7 7 6 6
15 12 13 14 14 15 15 11 12 11 13 15 18 20 23 22 21 22 22 21 21 21 21 22 20 16 15 15 15 16 16 16 15 14 13 14 13 13 13 12 12 11 10 12 11 11 12 12 11 11 12 11 11 10 10 10 10 10 9 9 8 8 7
20 19 17 15 14 15 14 12 14 14 15 16 19 18 21 20 21 22 23 22 21 21 22 21 20 17 14 15 15 16 15 15 15 15 15 16 14 16 15 14 12 11 12 11 12 11 12 13 13 13 13 12 12 11 11 11 11 10 10 10 10 10 9
17 12 14 15 13 14 13 13 14 15 17 18 16 16 19 18 17 18 20 21 21 23 23 21 19 18 15 15 16 16 15 15 14 17 18 18 15 17 17 15 13 12 13 12 11 12 12 13 13 13 13 13 13 13 12 13 12 10 10 11 11 11 10
16 14 14 18 17 17 14 16 15 15 17 17 16 15 15 16 17 18 18 20 21 21 22 19 17 17 17 18 19 18 16 17 16 17 18 18 16 18 18 16 15 13 14 13 13 13 13 12 13 12 13 14 14 14 14 14 14 13 12 11 10 11 11
16 15 13 13 15 15 14 13 13 14 15 15 17 16 16 17 17 17 17 19 19 19 18 18 18 18 18 19 18 17 18 17 16 18 19 17 17 18 17 16 14 15 14 14 14 13 14 14 13 13 14 14 14 14 14 13 14 14 13 12 12 11 10
9 14 15 16 15 14 12 11 14 15 15 16 18 16 15 17 17 17 15 17 18 16 17 16 16 16 17 19 19 16 17 17 17 16 17 15 14 14 14 15 16 17 16 15 16 16 15 14 14 13 13 14 14 14 14 13 13 13 13 12 12 12 11
13 12 10 9 9 10 11 11 12 13 14 15 16 15 14 16 16 15 15 16 16 16 17 15 15 15 16 16 15 15 17 16 16 15 14 14 13 13 13 13 13 13 12 13 15 16 16 15 15 13 13 14 14 13 12 12 12 12 12 11 11 10 11
12 13 13 13 11 10 10 9 10 12 13 14 15 16 15 15 15 13 13 14 14 15 16 15 15 15 16 16 15 14 15 14 13 13 13 13 13 13 12 12 11 10 11 12 13 12 13 13 13 12 12 12 13 13 11 11 11 11 11 10 10 10 11
10 8 10 11 9 9 9 10 11 11 12 12 15 15 15 14 14 15 14 15 15 13 14 14 14 14 15 16 14 13 14 14 12 12 12 12 13 13 12 11 10 10 11 11 12 11 10 10 11 12 12 11 12 11 10 9 9 11 15 12 11 12 10
17 17 14 13 11 12 10 10 11 12 13 14 14 15 15 13 14 14 16 14 16 14 13 15 15 14 15 15 14 14 14 13 13 12 12 12 11 11 11 11 9 8 9 8 10 11 10 9 11 13 12 11 11 12 10 10 10 16 19 20 17 13 10
16 12 16 15 14 14 12 13 13 14 15 16 15 16 13 12 13 14 15 14 15 15 13 14 15 16 14 15 14 14 15 13 13 12 12 11 11 11 10 9 8 8 7 7 9 10 9 9 9 11 11 11 12 11 11 11 13 17 17 17 18 14 9
14 12 15 14 15 15 16 17 16 16 17 16 16 15 16 15 13 14 14 13 13 13 12 13 15 15 14 14 14 14 14 13 13 13 12 11 10 9 9 9 9 8 8 8 7 6 9 8 7 7 9 10 12 12 11 9 12 17 19 18 16 15 11
14 12 11 16 17 16 15 14 14 16 17 17 17 19 16 15 15 13 12 11 11 13 10 13 14 14 14 13 14 14 14 13 13 12 11 10 9 9 9 10 10 8 7 6 6 7 8 8 7 5 7 8 9 10 9 8 12 19 19 17 16 15 10
9 12 12 6 16 17 16 15 15 16 15 16 18 15 13 13 13 11 12 12 13 13 10 12 14 13 13 13 13 13 13 13 12 12 11 10 10 9 9 9 8 8 6 5 5 5 6 6 6 5 5 7 8 8 10 7 15 17 18 18 17 14 8
15 12 10 7 10 15 17 17 16 18 17 15 14 15 16 15 16 16 13 13 14 12 11 13 13 14 13 14 13 13 13 13 13 11 11 11 10 9 9 8 8 7 6 6 5 5 5 5 5 6 5 5 7 8 9 7 16 16 18 17 15 16 10
18 14 14 11 11 10 17 17 17 17 15 14 16 16 16 16 16 15 13 14 14 13 13 13 14 14 13 14 13 13 13 12 12 11 11 10 9 9 8 7 7 7 6 6 5 4 5 6 6 5 6 6 7 7 8 7 17 19 18 17 16 11 7
21 19 16 16 13 13 14 17 17 16 18 18 17 16 14 15 15 14 14 15 14 14 14 14 14 13 13 14 13 12 12 11 11 11 10 9 9 9 8 7 6 6 6 6 6 6 6 6 6 6 5 6 7 8 7 6 9 15 17 17 16 14 11
23 23 21 18 18 17 15 16 17 15 17 17 17 15 16 16 16 15 16 15 16 15 16 15 14 14 14 13 12 12 11 11 10 11 11 10 9 8 8 8 6 5 5 5 5 4 5 6 5 4 4 5 6 7 9 8 10 15 16 17 17 13 9
17 18 20 18 20 19 13 14 13 15 15 17 16 17 18 16 15 16 16 15 16 17 16 16 15 14 13 13 12 11 11 10 10 10 11 11 10 8 8 7 6 6 6 5 5 5 6 5 5 6 6 8 9 7 7 9 8 13 16 16 18 18 10
8 7 8 14 6 12 10 10 13 16 15 13 14 15 15 15 15 14 14 15 16 17 16 14 13 13 13 13 13 12 11 10 10 11 10 9 8 8 8 7 7 7 6 7 6 5 4 6 6 6 5 7 9 8 9 9 9 12 18 17 17 18 14
8 16 13 8 10 14 12 10 9 10 10 10 13 15 15 15 14 14 14 15 15 16 15 15 14 13 13 13 13 13 12 11 10 10 9 9 8 8 7 6 7 6 6 5 5 5 5 4 3 4 5 4 7 7 8 10 12 9 16 17 17 17 16
4 9 9 7 10 11 12 11 11 12 12 14 16 14 13 15 15 14 14 13 14 15 15 15 14 14 14 13 13 11 11 11 11 10 8 9 9 8 7 6 7 7 7 5 5 5 6 6 5 5 5 6 6 6 4 3 8 11 13 17 18 18 17
5 12 8 6 8 9 11 10 11 12 12 14 12 12 13 13 14 13 13 14 13 15 15 15 15 14 13 12 12 12 11 11 10 9 9 10 9 9 9 8 7 7 7 5 4 5 5 6 6 7 8 8 6 3 4 4 3 5 13 15 17 15 15
3 7 10 11 9 8 9 12 12 12 12 10 11 11 11 12 15 15 14 13 13 15 16 16 15 14 14 13 12 12 11 9 8 9 9 10 10 9 9 9 9 8 6 5 5 6 7 7 8 8 7 7 6 5 5 4 4 3 3 8 12 13 12
1 4 8 10 10 10 11 11 11 12 12 12 12 11 10 11 13 17 15 14 14 14 15 15 15 14 14 13 12 12 11 11 10 9 10 10 9 10 10 10 9 8 6 5 6 6 7 7 7 7 6 5 5 6 7 6 4 4 4 5 6 6 8
12 3 8 8 10 10 11 13 14 13 14 14 14 14 14 15 15 14 14 13 15 15 14 14 14 13 12 12 11 11 10 10 8 7 7 7 7 7 7 9 8 8 7 7 7 7 7 7 7 6 6 6 6 6 7 7 5 5 5 4 5 5 6
13 21 13 5 7 10 10 11 13 13 13 13 11 13 15 15 16 16 16 16 16 14 14 14 13 13 12 11 9 9 9 8 10 9 7 6 6 7 7 7 7 7 9 8 8 8 7 7 7 6 6 6 6 6 6 7 6 6 6 6 6 6 6
10 9 15 21 15 7 10 12 13 12 14 13 12 14 14 16 16 17 16 15 15 14 14 13 13 13 14 12 10 9 8 8 8 8 7 7 8 9 8 4 1 4 6 5 4 2 5 6 4 5 5 6 6 6 5 5 8 8 9 8 9 9 9
9 10 9 8 11 9 11 9 10 14 14 13 12 13 13 14 14 14 15 14 14 14 14 13 12 13 13 11 11 12 10 9 9 8 8 8 7 7 7 11 11 8 6 5 5 5 6 6 4 4 7 6 4 2 5 5 3 9 16 13 13 11 10
5 6 2 2 5 5 2 10 12 14 14 12 11 12 12 12 13 13 13 13 13 13 14 13 11 11 12 11 11 10 9 9 9 9 7 7 8 7 8 6 9 14 13 9 4 9 12 12 10 8 5 4 4 5 10 5 10 14 15 13 11 10 9
10 13 12 11 8 6 6 12 12 13 12 10 11 11 11 13 13 12 13 12 11 11 11 12 10 10 11 11 11 9 8 8 9 9 8 8 7 7 7 7 7 6 12 12 10 12 12 11 11 9 8 11 9 7 4 4 6 14 14 14 12 11 11
Wind_Direction
192 190 191 191 191 192 192 188 187 194 192 187 186 187 191 189 188 184 185 181 183 183 184 183 182 181 182 182 184 184 185 186 183 187 186 185 181 183 181 176 171 175 175 173 174 176 185 186 161 160 177 153 150 145 164 176 183 193 169 158 178 151 178
187 188 190 194 194 191 192 185 186 194 191 186 186 186 191 191 187 186 185 181 183 185 184 184 184 184 183 182 183 184 186 187 184 184 185 185 182 185 180 177 176 176 177 172 166 177 169 185 166 157 165 160 165 159 169 184 189 188 170 169 178 172 183
180 183 188 192 194 193 192 189 192 191 188 186 185 185 192 192 190 187 183 181 182 185 186 187 187 186 183 182 183 186 187 185 187 185 186 186 185 190 183 179 176 178 183 175 167 174 172 178 178 163 165 168 171 171 177 180 186 186 172 171 179 184 192
179 181 185 187 188 190 189 190 193 193 192 192 189 189 189 191 190 189 184 183 181 182 186 188 188 188 183 182 184 186 186 188 189 189 189 188 186 188 186 183 178 181 182 186 175 175 177 175 176 171 168 169 175 177 176 181 182 187 185 171 186 186 190
171 184 184 177 178 176 181 193 200 191 195 196 191 189 188 187 188 188 187 186 185 185 188 188 189 188 186 183 186 186 187 186 188 190 191 188 184 185 190 190 184 188 183 182 183 175 179 173 174 175 176 174 176 173 177 180 182 184 190 180 183 188 183
181 183 176 171 175 176 183 193 201 198 196 197 194 188 189 190 190 192 190 184 186 187 187 188 189 185 185 185 186 186 185 187 187 189 188 188 184 186 191 192 189 189 185 184 181 180 180 177 176 177 180 179 180 179 178 183 184 182 188 189 185 179 185
182 175 168 172 174 177 181 190 197 199 196 200 197 190 191 193 194 193 191 188 187 187 188 190 190 186 186 184 186 184 184 186 187 189 188 188 189 189 190 193 192 190 191 176 185 179 184 180 178 180 182 185 185 184 182 182 188 183 183 191 181 184 190
158 155 163 177 171 180 182 171 180 192 197 198 200 195 195 194 192 193 192 189 189 189 190 191 189 186 183 184 184 186 185 187 187 188 188 190 191 194 192 191 195 189 188 183 184 182 184 181 180 179 182 185 185 186 180 182 187 183 182 185 185 188 193
160 170 177 172 171 177 178 176 175 186 204 203 202 197 195 193 193 191 190 188 189 189 190 191 189 186 180 183 184 186 184 184 186 186 188 191 192 198 197 194 192 188 190 187 185 184 185 182 184 182 182 186 185 184 181 182 187 186 184 184 185 190 192
158 157 169 166 169 181 181 183 179 182 199 199 199 194 190 193 193 191 190 190 188 190 189 189 187 184 179 182 185 185 182 185 186 188 190 194 195 198 200 197 192 189 192 193 187 186 186 184 188 185 184 185 184 185 182 181 185 187 189 185 186 189 192
154 157 166 164 175 178 177 179 184 194 195 189 191 191 186 191 193 192 191 190 190 190 189 188 185 184 181 183 186 185 185 186 185 188 191 194 195 199 199 198 195 192 194 194 194 190 186 186 188 188 186 188 185 186 186 183 182 186 189 187 188 191 191
147 159 162 172 166 170 179 183 189 188 185 182 184 188 187 189 192 195 192 192 190 189 186 186 185 183 182 183 184 184 185 187 188 192 193 194 197 199 199 198 194 194 194 194 197 192 191 188 189 189 190 190 188 188 189 183 183 185 187 187 187 189 191
161 160 164 170 165 171 172 179 190 184 180 181 184 187 186 187 190 194 193 192 193 187 184 183 184 179 179 183 185 182 185 186 189 193 193 193 197 198 197 200 201 199 197 194 199 200 196 192 191 191 190 191 190 191 190 186 183 183 185 185 185 187 189
143 163 158 150 154 162 173 178 176 177 177 178 182 186 183 188 191 195 191 192 193 187 184 182 182 178 177 182 183 183 184 187 190 191 192 193 194 196 198 200 201 199 191 190 199 204 199 196 191 190 191 191 192 192 189 187 185 184 186 185 181 184 191
145 160 154 155 164 172 175 167 168 171 172 177 181 186 186 186 192 192 192 191 193 191 185 179 180 179 176 178 183 181 182 185 188 192 192 190 192 195 197 197 198 192 185 188 197 204 201 198 194 189 190 191 192 192 188 186 187 186 184 178 184 188 194
202 167 159 163 171 174 174 169 162 167 169 173 183 188 189 188 191 193 190 188 189 192 183 174 177 179 175 177 180 177 178 182 186 190 190 189 190 194 195 196 194 189 188 187 193 196 198 199 186 189 186 188 191 190 185 185 188 187 169 179 193 191 189
205 188 173 181 177 180 183 176 169 167 171 178 184 189 193 191 191 190 194 188 190 192 182 173 173 177 175 176 175 173 175 179 185 185 188 188 188 189 192 193 189 187 191 189 184 193 197 197 185 186 184 187 190 191 186 187 193 173 167 185 191 190 187
216 180 170 173 177 177 179 182 174 174 178 182 185 189 191 191 191 190 196 187 190 191 180 173 172 175 174 172 170 170 173 178 180 181 184 184 187 186 187 185 184 183 186 194 187 189 196 199 196 192 183 178 186 187 187 192 186 169 172 185 191 186 185
220 195 182 175 178 185 181 181 179 181 183 183 188 188 190 188 189 195 193 186 186 190 181 173 171 172 171 168 170 170 171 175 178 179 180 183 183 181 178 182 183 184 190 201 198 188 197 197 193 187 184 181 183 186 187 192 154 168 179 188 185 185 182
225 239 198 181 182 181 182 179 182 183 182 184 187 190 188 186 191 195 194 182 177 189 181 168 168 169 169 165 169 168 170 174 175 176 178 175 175 176 178 183 186 183 185 190 192 193 197 197 196 182 181 178 178 180 174 178 165 175 180 182 181 181 173
240 220 228 179 175 178 175 183 181 183 182 184 188 183 176 181 186 181 188 182 178 186 176 165 163 166 167 167 167 167 169 172 170 173 172 169 172 176 182 180 171 174 169 168 184 181 183 182 178 167 178 177 170 166 168 174 171 176 173 176 178 169 164
240 247 237 220 176 179 179 182 181 181 183 182 174 178 182 181 185 188 187 180 176 178 170 162 163 165 168 169 168 168 168 168 170 169 167 166 169 172 171 171 175 165 157 174 186 186 155 158 157 156 143 152 161 166 172 155 166 170 175 174 171 173 184
261 257 253 243 238 191 181 181 182 178 170 169 175 176 181 181 181 184 178 175 175 173 165 162 165 169 168 169 166 167 168 168 167 161 160 163 163 164 166 166 164 157 156 180 195 184 150 144 141 137 149 160 178 170 168 153 179 176 172 170 169 164 188
262 264 264 261 250 237 188 183 178 167 167 168 175 175 170 172 176 177 174 174 171 167 165 164 167 168 165 166 166 164 166 165 160 154 156 155 162 161 165 165 168 168 152 180 186 185 151 131 126 138 151 168 182 178 151 149 166 168 168 171 171 176 187
242 244 250 248 250 242 191 176 170 163 166 166 170 168 165 168 171 172 172 171 169 167 166 165 166 166 165 163 163 160 163 157 157 152 154 160 162 165 161 165 156 146 135 172 175 170 137 137 135 143 134 162 181 157 145 154 176 185 176 173 177 182 193
243 234 227 233 238 236 179 165 153 155 160 165 170 168 162 164 168 171 172 168 165 166 166 168 164 160 157 162 159 156 157 154 155 153 158 159 157 157 150 146 154 145 146 148 152 136 135 134 141 149 175 194 195 187 178 172 172 187 185 183 183 185 189
328 278 238 238 225 97 120 141 147 155 165 165 162 159 159 160 164 163 169 165 167 166 162 154 150 153 155 152 153 151 150 148 148 151 152 152 152 145 142 149 153 138 142 141 135 120 124 147 161 175 178 191 191 199 200 203 187 183 189 189 186 191 193
11 355 286 243 138 145 129 140 131 145 150 149 158 156 157 157 157 161 164 169 166 157 151 148 148 145 142 145 145 147 149 146 142 148 153 147 139 140 137 136 131 132 135 130 119 128 134 134 170 167 182 210 188 201 200 204 206 171 194 189 189 191 197
99 71 22 88 132 120 137 129 147 150 156 164 164 159 153 154 154 159 162 167 154 146 141 138 137 135 134 136 139 139 138 135 140 146 142 137 136 136 134 123 120 124 122 121 129 143 152 162 176 186 191 203 208 212 204 147 195 177 180 194 192 193 195
128 113 128 84 104 140 128 131 140 156 164 165 156 157 151 150 150 154 158 150 140 133 130 129 130 129 127 126 124 128 133 137 138 137 134 136 137 132 123 124 125 122 131 135 144 155 167 168 182 198 203 203 183 128 130 143 105 183 181 185 193 191 193
30 113 124 134 140 126 136 144 154 155 156 145 144 140 142 144 146 144 137 133 129 128 128 127 125 123 125 127 128 128 132 132 130 126 129 133 134 133 133 130 131 132 135 152 168 184 187 187 192 204 201 187 151 157 152 136 135 103 93 142 165 172 173
252 117 139 135 133 134 139 148 147 148 141 134 124 117 126 136 129 127 123 122 123 123 122 122 123 124 127 128 130 133 134 130 123 128 133 133 133 136 138 133 138 142 151 168 195 197 191 191 190 197 193 163 152 162 163 151 132 118 118 129 146 153 166
300 244 137 138 135 150 153 160 163 151 139 123 119 115 116 117 117 114 118 121 127 125 122 122 121 122 123 123 127 128 131 121 119 118 114 114 118 121 123 132 140 148 160 182 198 196 196 195 200 188 180 168 173 169 159 160 143 147 148 145 140 134 129
20 342 334 121 138 130 123 124 119 113 116 116 125 131 119 117 122 131 134 135 132 122 116 115 117 119 118 114 110 109 109 111 114 115 120 126 130 141 143 146 151 159 174 192 196 193 194 202 199 174 168 171 179 163 156 164 165 166 169 171 166 150 148
17 44 347 340 350 25 101 116 115 119 122 117 121 117 118 126 133 136 130 121 119 116 111 109 110 113 116 116 114 111 111 118 118 120 118 84 60 44 32 22 29 117 83 38 25 2 214 212 148 151 155 172 165 158 161 180 186 189 170 172 167 158 161
17 21 42 349 331 347 69 66 99 106 103 104 108 112 115 117 117 118 115 115 116 114 113 115 118 121 126 130 136 140 140 142 142 138 133 119 114 100 80 62 58 42 94 94 43 60 42 79 140 154 160 146 128 109 179 198 210 129 143 147 160 161 158
357 38 22 262 253 275 275 112 106 99 99 103 109 111 113 111 109 107 109 110 114 117 120 124 126 129 132 141 145 143 144 149 145 143 150 130 127 124 121 111 53 47 48 59 54 55 56 57 65 58 65 121 139 58 27 51 120 128 133 138 138 134 126
201 180 179 192 187 164 118 88 85 91 98 103 103 102 101 103 104 102 111 115 122 130 133 136 138 139 146 146 136 135 145 146 138 148 145 126 133 137 140 126 118 74 38 37 46 49 54 56 49 53 94 117 126 124 57 54 119 128 127 124 121 117 110